Retour au catalogue

STARLINK-4454

ActifCommunicationsPO
NORAD 53499·PAYLOAD·🇺🇸 United States

Lancé Aug 12, 2022 depuis Vandenberg Space Force Base

Loading…

Prochains Passages (prochaines 24 heures)

TLE

FraisSource: CelesTrak SupGP

Époque: Sep 14, 2026, 21:34 UTC

1 53499C 22099AL  26257.89909722  .00331950  00000+0  12876-2 0  2573
2 53499  97.6050  26.7238 0001370  98.6486 181.7362 15.86981565    12

Suivez STARLINK-4454 en temps réel avec AllMySat

Download on the App Store